Preview of NWS' New Version of Forecast
This preview is not operational and should not be used for support decisions.

Regional Weather Roundup (RWR)

Issued by National Weather Service (NWS)

                            
000
ASUS43 KDMX 182306
RWRIA 

WEATHER ROUNDUP FOR IOWA
NATIONAL WEATHER SERVICE DES MOINES IA
600 PM CDT TUE JUN 18 2019

NOTE: "FAIR" INDICATES FEW OR NO CLOUDS BELOW 12,000 FEET WITH NO
SIGNIFICANT WEATHER AND/OR OBSTRUCTIONS TO VISIBILITY.

* - THESE STATIONS ARE NOT NWS STATIONS...THUS NOT UNDER NWS
QUALITY CONTROL.  THEY ALSO DO NOT REPORT WEATHER SUCH 
AS PRECIPITATION OR FOG.  

IAZ001>003-012>014-020>022-031>034-043>046-190000-
   NORTHWEST IOWA
  
CITY           SKY/WX    TMP DP  RH WIND       PRES   REMARKS
CARROLL *      LGT RAIN  66  64  94 N7        29.93S                  
CHEROKEE *     SUNNY     70  60  70 SE6       29.92S                  
DENISON *      LGT RAIN  64  64 100 NE6       29.95S                  
LE MARS *      SUNNY     72  59  64 S9        29.92S                  
SHELDON *      MOSUNNY   73  50  43 NE5G12    29.91S                  
SIOUX CITY     SUNNY     68  59  73 SE7       29.92F                  
SPENCER        SUNNY     75  50  41 VRB3      29.92F                  
STORM LAKE *   SUNNY     68  61  77 SE5       29.91S                  
$$
 
IAZ055>058-069>071-079>083-090>094-190000-
   SOUTHWEST IOWA
  
CITY           SKY/WX    TMP DP  RH WIND       PRES   REMARKS
ATLANTIC *     HVY RAIN  66  64  94 N5        29.91F VSB 1            
AUDUBON *      LGT RAIN  64  63  94 CALM      29.94S                  
CLARINDA *     SUNNY     68  66  94 N9G17     29.91S                  
COUNCIL BLFS * LGT RAIN  66  66 100 NE8       29.90F                  
CRESTON *      SUNNY     70  64  83 N10       29.90S                  
HARLAN  *      LGT RAIN  66  66 100 NE6       29.92F                  
LAMONI         SUNNY     78  58  49 CALM      29.87S                  
RED OAK *      LGT RAIN  66  66 100 N6        29.91F                  
SHENANDOAH *   DRIZZLE   66  66 100 N10       29.89S                  
$$
 
IAZ047>049-059>061-072>074-084-190000-
   CENTRAL IOWA
  
CITY           SKY/WX    TMP DP  RH WIND       PRES   REMARKS
AMES           CLOUDY    70  64  81 N6        29.90F                  
ANKENY *       MOSUNNY   70  64  83 N6        29.91R                  
BOONE *        LGT RAIN  66  66 100 N6        29.91R                  
CHARITON *     SUNNY     77  63  61 NE8       29.86F                  
DES MOINES     LGT RAIN  72  64  76 N9        29.88S                  
GRINNELL*      CLOUDY    73  63  72 N7        29.90F                  
KNOXVILLE *    CLOUDY    75  63  64 NE7       29.87F                  
MARSHALLTOWN   CLOUDY    69  62  78 N5        29.89F                  
NEWTON *       PTSUNNY   72  64  78 N9        29.88F                  
PELLA *        MOSUNNY   75  61  60 CALM      29.88F                  
PERRY *        LGT RAIN  69  68  97 CALM      29.91F                  
$$
 
IAZ004>006-015-016-023>025-035-036-190000-
   NORTH CENTRAL IOWA
  
CITY           SKY/WX    TMP DP  RH WIND       PRES   REMARKS
ALGONA *       MOSUNNY   72  55  56 N5        29.91S                  
CLARION *      CLOUDY    70  59  68 CALM      29.91F                  
ESTHERVILLE    SUNNY     70  50  49 CALM      29.91F                  
FORT DODGE *   CLOUDY    69  61  75 CALM      29.93S                  
MASON CITY     MOSUNNY   73  56  54 N5        29.91F                  
FOREST CITY *  FAIR      72  52  49 N7        29.91F                  
IOWA FALLS *   PTSUNNY   69  64  84 W3        29.92F                  
$$

IAZ007>011-017>019-026>030-037>042-050>054-066-190000-
   NORTHEAST IOWA
  
CITY           SKY/WX    TMP DP  RH WIND       PRES   REMARKS
CEDAR RAPIDS   CLOUDY    73  61  65 N7        29.88F                  
CHARLES CITY * CLOUDY    72  59  64 CALM      29.90F                  
CLINTON *      PTSUNNY   79  63  57 S3        29.87F HX  80           
DECORAH *      CLOUDY    72  59  64 CALM      29.88F                  
DUBUQUE        CLOUDY    73  63  70 W7        29.89F                  
MONTICELLO *   FAIR      73  64  73 NW8       29.88F                  
OELWEIN *      PTSUNNY   70  66  88 NW7       29.90F                  
WATERLOO       CLOUDY    72  62  71 NW3       29.88F                  
$$
 
IAZ064-065-067-068-078-190000-
   EAST CENTRAL IOWA
  
CITY           SKY/WX    TMP DP  RH WIND       PRES   REMARKS
DAVENPORT      FAIR      79  60  52 NE3       29.88F HX  80           
IOWA CITY      CLOUDY    77  64  64 N7        29.88F                  
MT. PLEASANT * PTSUNNY   81  63  54 CALM      29.85F HX  82           
MUSCATINE *    FAIR      79  61  53 CALM      29.86F HX  80           
QUAD CITIES    FAIR      82  60  47 N3        29.85F HX  82           
$$
 
IAZ062-063-075>077-085>089-095>099-190000-
   SOUTHEAST IOWA
  
CITY           SKY/WX    TMP DP  RH WIND       PRES   REMARKS
BURLINGTON     SUNNY     80  57  45 CALM      29.85F HX  80           
FAIRFIELD *    SUNNY     79  59  50 NE7       29.85F HX  80           
FORT MADISON * SUNNY     79  61  53 E3        29.86F HX  80           
KEOKUK *       SUNNY     79  63  57 CALM      29.85F HX  80           
OSKALOOSA *    FAIR      78  59  51 NE7       29.87F                  
CENTERVILLE *  FAIR      81  63  54 S5        29.87F HX  82           
OTTUMWA        MOSUNNY   80  60  50 NE3       29.86F HX  81           
WASHINGTON *   SUNNY     79  63  57 CALM      29.87F HX  80           
$$

ABBREVIATIONS USED IN REMARKS
   TC - TEMPERATURES IN CELSIUS
  WCI - WIND CHILL INDEX
   HX - HEAT INDEX
  VSB - VISIBILITY  
$$